This demonstration page uses our WeatherBlox Daily Observations layout. Learn more.

Left ArrowRight Arrow

39.12711, -84.51439

Hourly Observations for October 1, 2021

Temp ( °F °C ) Dew Point ( °F °C ) Humidity (%) Winds ( mph kmh ) Pressure ( in mb ) Visibility ( mi km ) Precip ( " mm )
12:26 am 00:26 Clear with Mist and Fog 56 13.3 56 13.3 100 100 Calm 30.22 1023 1 2 0.00 0.00
12:34 am 00:34 Clear with Mist and Fog 56 13.3 56 13.3 100 100 Calm 30.22 1023 1 1 0.00 0.00
12:48 am 00:48 Clear with Mist and Fog 55 13 55 13 100 100 Calm 30.22 1023 4 6 0.00 0.00
12:53 am 00:53 Clear with Mist and Fog 56 13.3 56 13.3 100 100 Calm 30.21 1023 5 8 0.00 0.00
1:04 am 01:04 Clear with Mist and Fog 55 12.8 55 12.8 100 100 Calm 30.22 1023 2 2 0.00 0.00
1:13 am 01:13 Clear with Fog 55 12.8 55 12.8 100 100 Calm 30.22 1023 1 1 0.00 0.00
1:22 am 01:22 Clear with Mist and Fog 56 13.3 56 13.3 100 100 Calm 30.22 1023 3 5 0.00 0.00
1:36 am 01:36 Clear with Mist and Fog 55 12.8 55 12.8 100 100 Calm 30.22 1023 2 3 0.00 0.00
1:44 am 01:44 Clear 55 12.8 55 12.8 100 100 Calm 30.22 1023 7 11 0.00 0.00
1:53 am 01:53 Clear 54 12.2 54 12.2 100 100 Calm 30.21 1023 7 11 0.00 0.00
2:15 am 02:15 Clear with Mist and Fog 55 12.8 55 12.8 100 100 Calm 30.22 1023 2 3 0.00 0.00
2:30 am 02:30 Clear with Mist and Fog 55 12.8 55 12.8 100 100 Calm 30.22 1023 1 2 0.00 0.00
2:37 am 02:37 Clear with Mist and Fog 55 12.8 55 12.8 100 100 Calm 30.23 1024 3 5 0.00 0.00
2:48 am 02:48 Clear with Mist and Fog 54 12 54 12 100 100 Calm 30.22 1023 2 2 0.00 0.00
2:53 am 02:53 Clear with Mist and Fog 54 12.2 54 12.2 100 100 NNE 3 6 30.22 1023 1 2 0.00 0.00
3:01 am 03:01 Clear with Mist and Fog 55 12.8 55 12.8 100 100 Calm 30.23 1024 3 5 0.00 0.00
3:15 am 03:15 Clear with Mist and Fog 53 11.7 53 11.7 100 100 Calm 30.23 1024 1 2 0.00 0.00
3:23 am 03:23 Clear with Fog 54 12.2 54 12.2 100 100 Calm 30.23 1024 1 1 0.00 0.00
3:34 am 03:34 Clear with Mist and Fog 53 11.7 53 11.7 100 100 Calm 30.23 1024 2 3 0.00 0.00
3:43 am 03:43 Clear with Mist and Fog 53 11.7 53 11.7 100 100 Calm 30.23 1024 5 8 0.00 0.00
3:53 am 03:53 Clear with Mist and Fog 53 11.7 53 11.7 100 100 NNE 5 7 30.22 1023 4 6 0.00 0.00
4:48 am 04:48 Clear with Mist and Fog 52 11 52 11 100 100 ENE 3 6 30.24 1024 2 3 0.00 0.00
4:53 am 04:53 Clear with Mist and Fog 53 11.7 53 11.7 100 100 Calm 30.22 1024 2 2 0.00 0.00
4:57 am 04:57 Clear with Mist and Fog 52 11.1 52 11.1 100 100 Calm 30.24 1024 3 5 0.00 0.00
5:35 am 05:35 Mostly Clear with Mist and Fog 51 10.6 51 10.6 100 100 Calm 30.25 1024 3 4 0.00 0.00
5:38 am 05:38 Mostly Cloudy with Mist and Fog 51 10.6 51 10.6 100 100 Calm 30.25 1024 1 2 0.00 0.00
5:46 am 05:46 Mostly Cloudy with Mist and Fog 51 10.6 51 10.6 100 100 ENE 3 6 30.25 1024 1 1 0.00 0.00
5:49 am 05:49 Mostly Clear with Mist and Fog 52 11 52 11 100 100 ENE 3 6 30.25 1024 1 2 0.00 0.00
5:53 am 05:53 Mostly Clear with Mist and Fog 50 10 50 10 100 100 ENE 3 6 30.24 1024 4 6 0.00 0.00
6:08 am 06:08 Clear with Mist and Fog 51 10.6 51 10.6 100 100 NE 3 6 30.26 1025 2 3 0.00 0.00
6:15 am 06:15 Clear with Mist and Fog 51 10.6 51 10.6 100 100 ENE 3 6 30.26 1025 3 5 0.00 0.00
6:53 am 06:53 Clear with Fog 50 10 50 10 100 100 NE 3 6 30.25 1024 10 16 0.00 0.00
7:53 am 07:53 Sunny with Fog 51 10.6 51 10.6 100 100 Calm 30.26 1025 10 16 0.00 0.00
8:53 am 08:53 Sunny 56 13.3 54 12.2 93 93 NE 3 6 30.27 1025 10 16 0.00 0.00
9:53 am 09:53 Sunny 60 15.6 55 12.8 84 84 NNE 5 7 30.28 1025 10 16 0.00 0.00
10:53 am 10:53 Sunny 67 19.4 58 14.4 73 73 Calm 30.27 1025 10 16 0.00 0.00
11:53 am 11:53 Sunny 70 21.1 56 13.3 61 61 Calm 30.27 1025 10 16 0.00 0.00
12:53 pm 12:53 Sunny 75 23.9 52 11.1 45 45 VRB 6 9 30.25 1025 10 16 0.00 0.00
1:53 pm 13:53 Sunny 77 25 52 11.1 42 42 ENE 5 7 30.23 1024 10 16 0.00 0.00
2:53 pm 14:53 Sunny 78 25.6 51 10.6 39 39 Calm 30.22 1023 10 16 0.00 0.00
3:53 pm 15:53 Sunny 79 26.1 49 9.4 35 35 VRB 5 7 30.19 1022 10 16 0.00 0.00
4:53 pm 16:53 Sunny 78 25.6 47 8.3 33 33 ESE 5 7 30.18 1022 10 16 0.00 0.00
5:53 pm 17:53 Sunny 77 25 47 8.3 35 35 SE 5 7 30.18 1022 10 16 0.00 0.00
6:53 pm 18:53 Sunny 68 20 57 13.9 68 68 SE 5 7 30.18 1022 10 16 0.00 0.00
7:53 pm 19:53 Clear 61 16.1 56 13.3 84 84 Calm 30.19 1022 10 16 0.00 0.00
8:53 pm 20:53 Clear 58 14.4 55 12.8 90 90 Calm 30.20 1023 10 16 0.00 0.00
9:53 pm 21:53 Clear 56 13.3 54 12.2 93 93 Calm 30.21 1023 10 16 0.00 0.00
10:53 pm 22:53 Clear 54 12.2 54 12.2 100 100 Calm 30.20 1023 10 16 0.00 0.00
11:53 pm 23:53 Clear 53 11.7 53 11.7 100 100 Calm 30.20 1023 8 13 0.00 0.00

Powered by AerisWeather